This is the latest recevied weather packets stored in our database for station/object KI4MRC. If no packets are shown the sender has not sent any weather packets the latest 10 day(s).
| Time | Temp. | Humidity | Pressure | Rain* | Wind** | Luminosity | Snow |
|---|---|---|---|---|---|---|---|
| 1777635628 | 20.56° C | 98% | 1012.9 hPa | 0 mm | - | 55 W/m² | - |
| 1777635325 | 20.56° C | 98% | 1013.1 hPa | 0 mm | - | 59 W/m² | - |
| 1777635021 | 20.56° C | 98% | 1013.1 hPa | 0 mm | - | 60 W/m² | - |
| 1777634718 | 20° C | 98% | 1012.9 hPa | 0 mm | - | 43 W/m² | - |
| 1777634415 | 20° C | 98% | 1013 hPa | 0 mm | - | 31 W/m² | - |
| 1777634112 | 20° C | 98% | 1012.9 hPa | 0 mm | - | 27 W/m² | - |
| 1777633809 | 20° C | 98% | 1012.9 hPa | 0 mm | - | 24 W/m² | - |
| 1777633507 | 19.44° C | 98% | 1012.9 hPa | 0 mm | - | 21 W/m² | - |
| 1777633204 | 19.44° C | 97% | 1012.9 hPa | 0 mm | - | 16 W/m² | - |
| 1777632901 | 19.44° C | 97% | 1012.6 hPa | 0 mm | - | 11 W/m² | - |
| 1777632597 | 19.44° C | 97% | 1012.4 hPa | 0 mm | - | 6 W/m² | - |
| 1777632294 | 19.44° C | 97% | 1012.5 hPa | 0 mm | - | 3 W/m² | - |
| 1777631990 | 19.44° C | 97% | 1012.5 hPa | 0 mm | - | 1 W/m² | - |
| 1777631689 | 19.44° C | 97% | 1012.3 hPa | 0 mm | - | 0 W/m² | - |
| 1777631386 | 19.44° C | 97% | 1012.1 hPa | 0 mm | - | 0 W/m² | - |
| 1777631083 | 19.44° C | 97% | 1012 hPa | 0 mm | - | 0 W/m² | - |
| 1777630779 | 19.44° C | 97% | 1011.9 hPa | 0 mm | - | 0 W/m² | - |
| 1777630476 | 19.44° C | 97% | 1011.9 hPa | 0 mm | - | 0 W/m² | - |
| 1777630173 | 19.44° C | 96% | 1012 hPa | 0 mm | - | 0 W/m² | - |
| 1777629871 | 20° C | 96% | 1012 hPa | 0 mm | - | 0 W/m² | - |
| 1777629568 | 20° C | 96% | 1012 hPa | 0 mm | - | 0 W/m² | - |
| 1777629264 | 20° C | 96% | 1012 hPa | 0 mm | - | 0 W/m² | - |
| 1777628960 | 20° C | 96% | 1011.9 hPa | 0 mm | - | 0 W/m² | - |
| 1777628657 | 20° C | 96% | 1012 hPa | 0 mm | - | 0 W/m² | - |
| 1777628353 | 20° C | 96% | 1011.8 hPa | 0 mm | - | 0 W/m² | - |
* Rain latest hour (hover to see other rain measurements)
** Current wind speed in m/s (hover to see current wind gust speed)